This is the latest recevied weather packets stored in our database for station/object IU0KRR-10. If no packets are shown the sender has not sent any weather packets the latest 10 day(s).
| Time | Temp. | Humidity | Pressure | Rain* | Wind** | Luminosity | Snow |
|---|---|---|---|---|---|---|---|
| 1787621195 | 21.11° C | 51% | 873.8 hPa | - | - | - | - |
| 1787620294 | 21.11° C | 44% | 873.2 hPa | - | - | - | - |
| 1787619394 | 22.22° C | 42% | 873.3 hPa | - | - | - | - |
| 1787618492 | 22.22° C | 37% | 872.5 hPa | - | - | - | - |
| 1787617595 | 22.22° C | 38% | 872.6 hPa | - | - | - | - |
| 1787616691 | 22.22° C | 38% | 873.6 hPa | - | - | - | - |
| 1787615791 | 22.22° C | 37% | 872.6 hPa | - | - | - | - |
| 1787614890 | 21.67° C | 38% | 873.3 hPa | - | - | - | - |
| 1787613990 | 21.67° C | 36% | 873.5 hPa | - | - | - | - |
| 1787613090 | 21.67° C | 40% | 873.7 hPa | - | - | - | - |
| 1787612262 | 21.11° C | 42% | 873.5 hPa | - | - | - | - |
| 1787612189 | 21.11° C | 42% | 873.5 hPa | - | - | - | - |
| 1787611341 | 21.11° C | 45% | 873.6 hPa | - | - | - | - |
| 1787611289 | 21.11° C | 45% | 873.6 hPa | - | - | - | - |
| 1787610388 | 21.11° C | 48% | 874 hPa | - | - | - | - |
| 1787609538 | 21.11° C | 52% | 874.3 hPa | - | - | - | - |
| 1787609488 | 21.11° C | 52% | 874.3 hPa | - | - | - | - |
| 1787608645 | 21.11° C | 51% | 874.3 hPa | - | - | - | - |
| 1787608587 | 21.11° C | 51% | 874.3 hPa | - | - | - | - |
| 1787607686 | 21.11° C | 56% | 874.7 hPa | - | - | - | - |
| 1787606786 | 21.11° C | 56% | 874.1 hPa | - | - | - | - |
| 1787605886 | 21.11° C | 55% | 873.7 hPa | - | - | - | - |
| 1787604985 | 21.11° C | 58% | 874.3 hPa | - | - | - | - |
| 1787604084 | 21.11° C | 58% | 874.3 hPa | - | - | - | - |
| 1787603225 | 21.11° C | 53% | 874.6 hPa | - | - | - | - |
* Rain since midnight (hover to see other rain measurements)
** Current wind speed in m/s (hover to see current wind gust speed)